Regional Weather Roundup
Issued by NWS Wilmington, NC

Home | Current Version | Previous Version | Text Only | Print | Product List | Glossary On
Versions: 1 2 3 4 5 6 7 8 9 10 11 12 13 14 15 16 17 18 19 20 21 22 23 24 25 26 27 28
000
ASUS42 KILM 191913
RWRILM
RWRILM
REGIONAL HOURLY WEATHER ROUNDUP
NATIONAL WEATHER SERVICE WILMINGTON NC
300 PM EDT SAT AUG 19 2017

NOTE: "FAIR" INDICATES FEW OR NO CLOUDS BELOW 12,000 FEET WITH NO
SIGNIFICANT WEATHER AND/OR OBSTRUCTIONS TO VISIBILITY.

...............WFO WILMINGTON COUNTY WARNING AREA...............

......COASTAL NC AND SC COUNTIES......

CITY           SKY/WX    TMP DP  RH WIND       PRES   REMARKS
WILMINGTON     TSTM      78  74  87 N6        29.94R
N MYRTLE BEACH SUNNY     88  80  77 S18       29.89F HX 104
MYRTLE BEACH   MOSUNNY   90  79  70 S18       29.92F HX 105

......INLAND NC AND SC COUNTIES.......

CITY           SKY/WX    TMP DP  RH WIND       PRES   REMARKS
LUMBERTON      MOSUNNY   90  73  57 NW6       29.89F HX  98
ELIZABETHTOWN  NOT AVBL
WHITEVILLE       N/A     77  74  90 NE7       29.92R
FLORENCE       MOSUNNY   93  70  46 SW13      29.91F HX  99
DARLINGTON     MOSUNNY   92  73  53 W10       29.92F HX 100
KINGSTREE      FAIR      91  70  49 SW8       29.91F HX  97
HARTSVILLE     FAIR      93  64  38 W6        29.92F HX  95
BENNETTSVILLE  FAIR      99  66  34 W7        29.91F HX 102
CONWAY         FAIR      86  79  79 SW3       29.89F HAZE    HX  99
GEORGETOWN     CLOUDY    91  77  62 S10       29.92F HX 105
MARION         FAIR      95  70  43 W12G23    29.90F HX 101

....................REST OF NORTH CAROLINA......................

.........EASTERN NC.........

CITY           SKY/WX    TMP DP  RH WIND       PRES   REMARKS
CAPE HATTERAS  PTSUNNY   82  74  76 SW10G22   29.93F
JACKSONVILLE   CLOUDY    87  77  72 SE8       29.92R HX  99
MOREHEAD CITY  CLOUDY    88  83  85 SW17      29.93F HX 109
KENANSVILLE    MOSUNNY   88  72  58 NW5       29.91S HX  94
NEW BERN       CLOUDY    89  75  63 CALM      29.91F HX  99
ELIZABETH CITY PTSUNNY   90  76  63 W5        29.90F HX 101

.........CENTRAL NC.........

CITY           SKY/WX    TMP DP  RH WIND       PRES   REMARKS
RALEIGH DURHAM MOSUNNY   91  65  41 CALM      29.94F HX  93
ROCKY MOUNT    SUNNY     90  70  51 NW8       29.93F HX  95
ROANOKE RAPIDS NOT AVBL
FAYETTEVILLE   PTSUNNY   92  69  47 N8        29.91F HX  97
HOFFMAN        MOSUNNY   92  67  42 N9        29.92F HX  95

.........WESTERN NC.........

CITY           SKY/WX    TMP DP  RH WIND       PRES   REMARKS
CHARLOTTE      MOSUNNY   89  67  47 VRB5      29.99F HX  92
GREENSBORO     MOSUNNY   88  67  49 VRB5      29.97F HX  91
HICKORY        NOT AVBL
BOONE          NOT AVBL
ASHEVILLE      NOT AVBL

.....................REST OF SOUTH CAROLINA.....................

.........EASTERN SC.........

CITY           SKY/WX    TMP DP  RH WIND       PRES   REMARKS
CHARLESTON     MOSUNNY   93  75  55 SW10      29.92F THUNDER HX 104
BEAUFORT MCAS  MOSUNNY   94  73  50 W9        29.94F HX 103
HILTON HEAD    NOT AVBL

.........CENTRAL SC.........

CITY           SKY/WX    TMP DP  RH WIND       PRES   REMARKS
COLUMBIA       MOSUNNY   96  64  34 SW7       29.92F HX  98
ORANGEBURG     MOSUNNY   94  65  38 NW8       29.94F HX  96
SUMTER SHAW    SUNNY     95  63  34 SW14      29.90F HX  96

.........WESTERN SC.........

CITY           SKY/WX    TMP DP  RH WIND       PRES   REMARKS
GREENVILLE     NOT AVBL
ROCK HILL      SUNNY     89  70  53 VRB7      29.98F HX  94
ANDERSON       SUNNY     90  65  43 E6        29.98F HX  92
CLEMSON        NOT AVBL
GREENWOOD      MOSUNNY   91  68  46 VRB5      29.97F HX  95


...................COASTAL AND OFFSHORE REPORTS..................

................LOCAL PIERS AND NC RESERVE................


STATION/POSITION TIME  SKY/WX   TEMP    WIND        PRES    VSBY
                                AIR SEA DIR/SP/G
                 (UTC)          (F)     (DEG/KT/KT) (MB)    (MI)
JOHNY MRCER PIER 1848            80 84   20/ 11/ 14 1013.2R
NC RESRV MASNBRO NOT AVBL
OCEAN CREST PIER NOT AVBL
SPRINGMAID  PIER 1848                               1011.9F


................COASTAL AND OFFSHORE BUOYS................


STATION/POSITION TIME  SKY/WX   TEMP    WIND        PRES    VSBY
                                AIR SEA DIR/SP/G
                 (UTC)          (F)     (DEG/KT/KT) (MB)    (MI)
DIMNDSHOAL 41025 1850            84 84  250/ 16/ 21 1013.5F
WVE H/P(F/S)=  4/ 5 SWL H/P/D(F/S/D)=  2/160/ 8

CAPE LOOKOUT     1900            86     210/ 13/ 16 1013.3S
ONSLOW BAY 41036 NOT AVBL
ONSLOW BAY 41064 1808            83 84  220/ 14/ 19 1013.3F
ONSLOW BAY 41159 1843               84                N/A
WVE H/P(F/S)=  4/ 6

MASNBO INL 41110 1859               84                N/A
WVE H/P(F/S)=  3/ 4

WILM HARBR 41108 1900               86                N/A
WVE H/P(F/S)=  4/ 6

27SE WRITB 41037 1808            84 84  200/ 16/ 21 1013.1F
FRYING PAN 41013 1900            84 84  200/ 14/ 17 1013.6
SUNST NRSH 41024 1808            85 85  220/ 12/ 16 1013.1F
CAPRS NRSH 41029 1808            83 86  220/ 12/ 17 1014.1F
EDISTO     41004 1900            84 85  200/ 14/ 17 1013.7


..........OFFSHORE BUOYS BEYOND 100 NM OFFSHORE...........
.....IN A TRIANGLE---HAT TO BERMUDA TO BAHAMAS TO HAT.....


STATION/POSITION TIME  SKY/WX   TEMP    WIND        PRES    VSBY
                                AIR SEA DIR/SP/G
                 (UTC)          (F)     (DEG/KT/KT) (MB)    (MI)
150E HAT   41001 1900               82  220/ 14/ 19 1015.0
W BERMUDA  41048 1900            82 83  250/ 10/ 12 1018.6
ATLANTIC S 41049 1850            84 85  100/  8/ 12 1019.9F
WVE H/P(F/S)=  4/ 8 SWL H/P/D(F/S/D)=  5/130/ 8

E BAHAMAS  41046 1900            84 84  100/ 12/ 14 1016.4
NE BAHAMAS 41047 1850            85 85  130/ 10/ 14 1017.6F
WVE H/P(F/S)=  3/ 8 SWL H/P/D(F/S/D)=  3/120/ 8

120E CANVRL41010 1900            85 86  140/  6/  8 1015.8

END




USA.gov is the U.S. government's official web portal to all federal, state and local government web resources and services.